contact:dominique.lefevre@mio.osupytheas.fr, maurice.libes@osupytheas.fr, didier.mallarino@osupytheas.fr
Project:EMSO http://www.emso-fr.org/EMSO-France
Depth: 2436.0 m
Title:EMSO Ligure Ouest : Data MII capteur MICROCAT
DateTime_Computer,Latitude,Longitude,Temperature,Conductivity,Pressure,DateTime_Instrument
DateTime_Computer,Latitude,Longitude,degC,S m-1,dbar,DateTime_Instrument
2022-10-20T00:01:22Z,42.805,6.029,13.3006,4.60051,2470.6,2022-10-20T02:03:17Z
2022-10-20T00:04:25Z,42.805,6.029,13.3012,4.60050,2470.614,2022-10-20T02:06:21Z
2022-10-20T00:07:28Z,42.805,6.029,13.3009,4.60052,2470.6,2022-10-20T02:09:24Z
2022-10-20T00:10:31Z,42.805,6.029,13.3008,4.60052,2470.6,2022-10-20T02:12:27Z
2022-10-20T00:13:34Z,42.805,6.029,13.3008,4.60052,2470.577,2022-10-20T02:15:30Z
2022-10-20T00:16:37Z,42.805,6.029,13.3011,4.60051,2470.6,2022-10-20T02:18:33Z
2022-10-20T00:19:40Z,42.805,6.029,13.3011,4.60052,2470.6,2022-10-20T02:21:36Z
2022-10-20T00:22:43Z,42.805,6.029,13.3015,4.60050,2470.6,2022-10-20T02:24:39Z
2022-10-20T00:25:46Z,42.805,6.029,13.3010,4.60052,2470.624,2022-10-20T02:27:42Z
2022-10-20T00:28:50Z,42.805,6.029,13.3012,4.60050,2470.6,2022-10-20T02:30:45Z
2022-10-20T00:31:53Z,42.805,6.029,13.3014,4.60050,2470.577,2022-10-20T02:33:48Z
2022-10-20T00:34:56Z,42.805,6.029,13.3009,4.60051,2470.6,2022-10-20T02:36:51Z
2022-10-20T00:37:59Z,42.805,6.029,13.3007,4.60052,2470.614,2022-10-20T02:39:54Z
2022-10-20T00:41:02Z,42.805,6.029,13.3011,4.60052,2470.624,2022-10-20T02:42:57Z
2022-10-20T00:44:05Z,42.805,6.029,13.3006,4.60051,2470.624,2022-10-20T02:46:01Z
2022-10-20T00:47:08Z,42.805,6.029,13.3011,4.60051,2470.577,2022-10-20T02:49:04Z
2022-10-20T00:50:11Z,42.805,6.029,13.3009,4.60049,2470.591,2022-10-20T02:52:07Z
2022-10-20T00:53:14Z,42.805,6.029,13.3007,4.60051,2470.6,2022-10-20T02:55:10Z
2022-10-20T00:56:17Z,42.805,6.029,13.3009,4.60053,2470.591,2022-10-20T02:58:13Z
2022-10-20T00:59:20Z,42.805,6.029,13.3006,4.60052,2470.6,2022-10-20T03:01:16Z
2022-10-20T01:02:23Z,42.805,6.029,13.3009,4.60052,2470.637,2022-10-20T03:04:19Z
2022-10-20T01:05:26Z,42.805,6.029,13.3011,4.60049,2470.637,2022-10-20T03:07:22Z
2022-10-20T01:08:29Z,42.805,6.029,13.3011,4.60052,2470.6,2022-10-20T03:10:25Z
2022-10-20T01:11:33Z,42.805,6.029,13.3014,4.60052,2470.614,2022-10-20T03:13:28Z
2022-10-20T01:14:36Z,42.805,6.029,13.3011,4.60051,2470.6,2022-10-20T03:16:31Z
2022-10-20T01:17:39Z,42.805,6.029,13.3015,4.60052,2470.614,2022-10-20T03:19:34Z
2022-10-20T01:20:42Z,42.805,6.029,13.3012,4.60052,2470.577,2022-10-20T03:22:37Z
2022-10-20T01:23:45Z,42.805,6.029,13.3011,4.60053,2470.6,2022-10-20T03:25:41Z
2022-10-20T01:26:48Z,42.805,6.029,13.3010,4.60054,2470.6,2022-10-20T03:28:44Z
2022-10-20T01:29:51Z,42.805,6.029,13.3009,4.60052,2470.624,2022-10-20T03:31:47Z
2022-10-20T01:32:54Z,42.805,6.029,13.3014,4.60050,2470.624,2022-10-20T03:34:50Z
2022-10-20T01:35:57Z,42.805,6.029,13.3011,4.60051,2470.586,2022-10-20T03:37:53Z
2022-10-20T01:39:00Z,42.805,6.029,13.3010,4.60050,2470.614,2022-10-20T03:40:56Z
2022-10-20T01:42:03Z,42.805,6.029,13.3011,4.60052,2470.614,2022-10-20T03:43:59Z
2022-10-20T01:45:06Z,42.805,6.029,13.3009,4.60051,2470.624,2022-10-20T03:47:02Z
2022-10-20T01:48:10Z,42.805,6.029,13.3011,4.60050,2470.577,2022-10-20T03:50:05Z
2022-10-20T01:51:13Z,42.805,6.029,13.3009,4.60051,2470.637,2022-10-20T03:53:08Z
2022-10-20T01:54:16Z,42.805,6.029,13.3012,4.60052,2470.6,2022-10-20T03:56:11Z
2022-10-20T01:57:19Z,42.805,6.029,13.3009,4.60050,2470.577,2022-10-20T03:59:14Z
2022-10-20T02:00:22Z,42.805,6.029,13.3010,4.60052,2470.661,2022-10-20T04:02:17Z
2022-10-20T02:03:25Z,42.805,6.029,13.3014,4.60053,2470.61,2022-10-20T04:05:21Z
2022-10-20T02:06:28Z,42.805,6.029,13.3014,4.60052,2470.624,2022-10-20T04:08:24Z
2022-10-20T02:09:31Z,42.805,6.029,13.3010,4.60052,2470.661,2022-10-20T04:11:27Z
2022-10-20T02:12:34Z,42.805,6.029,13.3010,4.60052,2470.637,2022-10-20T04:14:30Z
2022-10-20T02:15:37Z,42.805,6.029,13.3013,4.60054,2470.624,2022-10-20T04:17:33Z
2022-10-20T02:18:40Z,42.805,6.029,13.3009,4.60052,2470.637,2022-10-20T04:20:36Z
2022-10-20T02:21:43Z,42.805,6.029,13.3009,4.60054,2470.6,2022-10-20T04:23:39Z
2022-10-20T02:24:46Z,42.805,6.029,13.3007,4.60050,2470.661,2022-10-20T04:26:42Z
2022-10-20T02:27:50Z,42.805,6.029,13.3008,4.60050,2470.637,2022-10-20T04:29:45Z
2022-10-20T02:30:53Z,42.805,6.029,13.3011,4.60054,2470.624,2022-10-20T04:32:48Z
2022-10-20T02:33:56Z,42.805,6.029,13.3010,4.60053,2470.624,2022-10-20T04:35:51Z
2022-10-20T02:36:59Z,42.805,6.029,13.3012,4.60051,2470.646,2022-10-20T04:38:54Z
2022-10-20T02:40:02Z,42.805,6.029,13.3009,4.60052,2470.646,2022-10-20T04:41:58Z
2022-10-20T02:43:05Z,42.805,6.029,13.3007,4.60051,2470.624,2022-10-20T04:45:01Z
2022-10-20T02:46:08Z,42.805,6.029,13.3009,4.60052,2470.684,2022-10-20T04:48:04Z
2022-10-20T02:49:11Z,42.805,6.029,13.3011,4.60052,2470.624,2022-10-20T04:51:07Z
2022-10-20T02:52:14Z,42.805,6.029,13.3009,4.60052,2470.614,2022-10-20T04:54:10Z
2022-10-20T02:55:17Z,42.805,6.029,13.3009,4.60051,2470.624,2022-10-20T04:57:13Z
2022-10-20T02:58:20Z,42.805,6.029,13.3011,4.60054,2470.646,2022-10-20T05:00:16Z
2022-10-20T03:01:23Z,42.805,6.029,13.3014,4.60050,2470.6,2022-10-20T05:03:19Z
2022-10-20T03:04:26Z,42.805,6.029,13.3010,4.60051,2470.646,2022-10-20T05:06:22Z
2022-10-20T03:07:30Z,42.805,6.029,13.3011,4.60052,2470.624,2022-10-20T05:09:25Z
2022-10-20T03:10:33Z,42.805,6.029,13.3009,4.60052,2470.646,2022-10-20T05:12:28Z
2022-10-20T03:13:36Z,42.805,6.029,13.3010,4.60050,2470.67,2022-10-20T05:15:31Z
2022-10-20T03:16:39Z,42.805,6.029,13.3009,4.60052,2470.646,2022-10-20T05:18:34Z
2022-10-20T03:19:42Z,42.805,6.029,13.3011,4.60051,2470.646,2022-10-20T05:21:37Z
2022-10-20T03:22:45Z,42.805,6.029,13.3011,4.60054,2470.624,2022-10-20T05:24:41Z
2022-10-20T03:25:48Z,42.805,6.029,13.3009,4.60052,2470.624,2022-10-20T05:27:44Z
2022-10-20T03:28:51Z,42.805,6.029,13.3010,4.60054,2470.646,2022-10-20T05:30:47Z
2022-10-20T03:31:54Z,42.805,6.029,13.3011,4.60051,2470.646,2022-10-20T05:33:50Z
2022-10-20T03:34:57Z,42.805,6.029,13.3013,4.60052,2470.637,2022-10-20T05:36:53Z
2022-10-20T03:38:00Z,42.805,6.029,13.3011,4.60051,2470.624,2022-10-20T05:39:56Z
2022-10-20T03:41:03Z,42.805,6.029,13.3011,4.60054,2470.661,2022-10-20T05:42:59Z
2022-10-20T03:44:07Z,42.805,6.029,13.3010,4.60051,2470.661,2022-10-20T05:46:02Z
2022-10-20T03:47:10Z,42.805,6.029,13.3010,4.60052,2470.637,2022-10-20T05:49:05Z
2022-10-20T03:50:13Z,42.805,6.029,13.3010,4.60051,2470.646,2022-10-20T05:52:08Z
2022-10-20T03:53:16Z,42.805,6.029,13.3008,4.60052,2470.661,2022-10-20T05:55:11Z
2022-10-20T03:56:19Z,42.805,6.029,13.3014,4.60052,2470.624,2022-10-20T05:58:14Z
2022-10-20T03:59:22Z,42.805,6.029,13.3010,4.60053,2470.624,2022-10-20T06:01:18Z
2022-10-20T04:02:25Z,42.805,6.029,13.3015,4.60052,2470.646,2022-10-20T06:04:21Z
2022-10-20T04:05:28Z,42.805,6.029,13.3011,4.60052,2470.646,2022-10-20T06:07:24Z
2022-10-20T04:08:31Z,42.805,6.029,13.3013,4.60052,2470.684,2022-10-20T06:10:27Z
2022-10-20T04:11:34Z,42.805,6.029,13.3013,4.60051,2470.624,2022-10-20T06:13:30Z
2022-10-20T04:14:37Z,42.805,6.029,13.3009,4.60052,2470.646,2022-10-20T06:16:33Z
2022-10-20T04:17:40Z,42.805,6.029,13.3010,4.60052,2470.684,2022-10-20T06:19:36Z
2022-10-20T04:20:43Z,42.805,6.029,13.3010,4.60053,2470.661,2022-10-20T06:22:39Z
2022-10-20T04:23:47Z,42.805,6.029,13.3006,4.60052,2470.637,2022-10-20T06:25:42Z
2022-10-20T04:26:50Z,42.805,6.029,13.3012,4.60051,2470.67,2022-10-20T06:28:45Z
2022-10-20T04:29:53Z,42.805,6.029,13.3011,4.60052,2470.661,2022-10-20T06:31:48Z
2022-10-20T04:32:56Z,42.805,6.029,13.3011,4.60052,2470.646,2022-10-20T06:34:51Z
2022-10-20T04:35:59Z,42.805,6.029,13.3009,4.60052,2470.67,2022-10-20T06:37:54Z
2022-10-20T04:39:02Z,42.805,6.029,13.3014,4.60052,2470.661,2022-10-20T06:40:58Z
2022-10-20T04:42:05Z,42.805,6.029,13.3011,4.60052,2470.646,2022-10-20T06:44:01Z
2022-10-20T04:45:08Z,42.805,6.029,13.3008,4.60051,2470.646,2022-10-20T06:47:04Z
2022-10-20T04:48:11Z,42.805,6.029,13.3009,4.60052,2470.661,2022-10-20T06:50:07Z
2022-10-20T04:51:14Z,42.805,6.029,13.3011,4.60052,2470.646,2022-10-20T06:53:10Z
2022-10-20T04:54:17Z,42.805,6.029,13.3011,4.60051,2470.624,2022-10-20T06:56:13Z
2022-10-20T04:57:20Z,42.805,6.029,13.3009,4.60052,2470.67,2022-10-20T06:59:16Z
2022-10-20T05:00:23Z,42.805,6.029,13.3017,4.60052,2470.661,2022-10-20T07:02:19Z
2022-10-20T05:03:27Z,42.805,6.029,13.3006,4.60052,2470.637,2022-10-20T07:05:22Z
2022-10-20T05:06:30Z,42.805,6.029,13.3011,4.60051,2470.646,2022-10-20T07:08:25Z
2022-10-20T05:09:33Z,42.805,6.029,13.3009,4.60051,2470.624,2022-10-20T07:11:28Z
2022-10-20T05:12:36Z,42.805,6.029,13.3013,4.60051,2470.684,2022-10-20T07:14:31Z
2022-10-20T05:15:39Z,42.805,6.029,13.3009,4.60051,2470.624,2022-10-20T07:17:34Z
2022-10-20T05:18:42Z,42.805,6.029,13.3011,4.60052,2470.624,2022-10-20T07:20:38Z
2022-10-20T05:21:45Z,42.805,6.029,13.3011,4.60052,2470.661,2022-10-20T07:23:41Z
2022-10-20T05:24:48Z,42.805,6.029,13.3009,4.60052,2470.661,2022-10-20T07:26:44Z
2022-10-20T05:27:51Z,42.805,6.029,13.3011,4.60052,2470.674,2022-10-20T07:29:47Z
2022-10-20T05:30:54Z,42.805,6.029,13.3014,4.60052,2470.67,2022-10-20T07:32:50Z
2022-10-20T05:33:57Z,42.805,6.029,13.3011,4.60052,2470.624,2022-10-20T07:35:53Z
2022-10-20T05:37:00Z,42.805,6.029,13.3008,4.60052,2470.624,2022-10-20T07:38:56Z
2022-10-20T05:40:03Z,42.805,6.029,13.3011,4.60051,2470.661,2022-10-20T07:41:59Z
2022-10-20T05:43:07Z,42.805,6.029,13.3011,4.60052,2470.661,2022-10-20T07:45:02Z
2022-10-20T05:46:10Z,42.805,6.029,13.3011,4.60052,2470.624,2022-10-20T07:48:05Z
2022-10-20T05:49:13Z,42.805,6.029,13.3008,4.60052,2470.624,2022-10-20T07:51:08Z
2022-10-20T05:52:16Z,42.805,6.029,13.3004,4.60052,2470.637,2022-10-20T07:54:11Z
2022-10-20T05:55:19Z,42.805,6.029,13.3011,4.60055,2470.684,2022-10-20T07:57:15Z
2022-10-20T05:58:22Z,42.805,6.029,13.3009,4.60054,2470.646,2022-10-20T08:00:18Z
2022-10-20T06:01:25Z,42.805,6.029,13.3011,4.60052,2470.646,2022-10-20T08:03:21Z
2022-10-20T06:04:28Z,42.805,6.029,13.3015,4.60052,2470.646,2022-10-20T08:06:24Z
2022-10-20T06:07:31Z,42.805,6.029,13.3014,4.60052,2470.6,2022-10-20T08:09:27Z
2022-10-20T06:10:34Z,42.805,6.029,13.3009,4.60054,2470.624,2022-10-20T08:12:30Z
2022-10-20T06:13:37Z,42.805,6.029,13.3009,4.60052,2470.637,2022-10-20T08:15:33Z
2022-10-20T06:16:40Z,42.805,6.029,13.3013,4.60052,2470.637,2022-10-20T08:18:36Z
2022-10-20T06:19:44Z,42.805,6.029,13.3013,4.60052,2470.637,2022-10-20T08:21:39Z
2022-10-20T06:22:47Z,42.805,6.029,13.3011,4.60056,2470.61,2022-10-20T08:24:42Z
2022-10-20T06:25:50Z,42.805,6.029,13.3014,4.60052,2470.661,2022-10-20T08:27:45Z
2022-10-20T06:28:53Z,42.805,6.029,13.3011,4.60052,2470.646,2022-10-20T08:30:48Z
2022-10-20T06:31:56Z,42.805,6.029,13.3011,4.60052,2470.591,2022-10-20T08:33:51Z
2022-10-20T06:34:59Z,42.805,6.029,13.3012,4.60054,2470.624,2022-10-20T08:36:55Z
2022-10-20T06:38:02Z,42.805,6.029,13.3011,4.60052,2470.624,2022-10-20T08:39:58Z
2022-10-20T06:41:05Z,42.805,6.029,13.3010,4.60053,2470.624,2022-10-20T08:43:01Z
2022-10-20T06:44:08Z,42.805,6.029,13.3009,4.60052,2470.624,2022-10-20T08:46:04Z
2022-10-20T06:47:11Z,42.805,6.029,13.3014,4.60052,2470.661,2022-10-20T08:49:07Z
2022-10-20T06:50:14Z,42.805,6.029,13.3013,4.60053,2470.624,2022-10-20T08:52:10Z
2022-10-20T06:53:17Z,42.805,6.029,13.3013,4.60053,2470.646,2022-10-20T08:55:13Z
2022-10-20T06:56:20Z,42.805,6.029,13.3011,4.60054,2470.624,2022-10-20T08:58:16Z
2022-10-20T06:59:24Z,42.805,6.029,13.3014,4.60053,2470.624,2022-10-20T09:01:19Z
2022-10-20T07:02:27Z,42.805,6.029,13.3008,4.60054,2470.684,2022-10-20T09:04:22Z
2022-10-20T07:05:30Z,42.805,6.029,13.3009,4.60053,2470.624,2022-10-20T09:07:25Z
2022-10-20T07:08:33Z,42.805,6.029,13.3011,4.60054,2470.637,2022-10-20T09:10:28Z
2022-10-20T07:11:36Z,42.805,6.029,13.3011,4.60054,2470.646,2022-10-20T09:13:31Z
2022-10-20T07:14:39Z,42.805,6.029,13.3013,4.60054,2470.637,2022-10-20T09:16:35Z
2022-10-20T07:17:42Z,42.805,6.029,13.3015,4.60052,2470.624,2022-10-20T09:19:38Z
2022-10-20T07:20:45Z,42.805,6.029,13.3013,4.60053,2470.624,2022-10-20T09:22:41Z
2022-10-20T07:23:48Z,42.805,6.029,13.3013,4.60052,2470.637,2022-10-20T09:25:44Z
2022-10-20T07:26:51Z,42.805,6.029,13.3012,4.60053,2470.646,2022-10-20T09:28:47Z
2022-10-20T07:29:54Z,42.805,6.029,13.3014,4.60053,2470.6,2022-10-20T09:31:50Z
2022-10-20T07:32:57Z,42.805,6.029,13.3013,4.60059,2470.637,2022-10-20T09:34:53Z
2022-10-20T07:36:00Z,42.805,6.029,13.3013,4.60054,2470.614,2022-10-20T09:37:56Z
2022-10-20T07:39:04Z,42.805,6.029,13.3010,4.60054,2470.624,2022-10-20T09:40:59Z
2022-10-20T07:42:07Z,42.805,6.029,13.3014,4.60054,2470.624,2022-10-20T09:44:02Z
2022-10-20T07:45:10Z,42.805,6.029,13.3014,4.60054,2470.661,2022-10-20T09:47:05Z
2022-10-20T07:48:13Z,42.805,6.029,13.3009,4.60054,2470.6,2022-10-20T09:50:08Z
2022-10-20T07:51:16Z,42.805,6.029,13.3011,4.60054,2470.637,2022-10-20T09:53:12Z
2022-10-20T07:54:19Z,42.805,6.029,13.3011,4.60053,2470.6,2022-10-20T09:56:15Z
2022-10-20T07:57:22Z,42.805,6.029,13.3010,4.60054,2470.614,2022-10-20T09:59:18Z
2022-10-20T08:00:25Z,42.805,6.029,13.3014,4.60054,2470.646,2022-10-20T10:02:21Z
2022-10-20T08:03:28Z,42.805,6.029,13.3010,4.60054,2470.637,2022-10-20T10:05:24Z
2022-10-20T08:06:31Z,42.805,6.029,13.3012,4.60053,2470.637,2022-10-20T10:08:27Z
2022-10-20T08:09:34Z,42.805,6.029,13.3013,4.60053,2470.624,2022-10-20T10:11:30Z
2022-10-20T08:12:37Z,42.805,6.029,13.3011,4.60054,2470.614,2022-10-20T10:14:33Z
2022-10-20T08:15:41Z,42.805,6.029,13.3011,4.60055,2470.624,2022-10-20T10:17:36Z
2022-10-20T08:18:44Z,42.805,6.029,13.3014,4.60054,2470.6,2022-10-20T10:20:39Z
2022-10-20T08:21:47Z,42.805,6.029,13.3012,4.60054,2470.624,2022-10-20T10:23:42Z
2022-10-20T08:24:50Z,42.805,6.029,13.3011,4.60054,2470.577,2022-10-20T10:26:45Z
2022-10-20T08:27:53Z,42.805,6.029,13.3012,4.60053,2470.6,2022-10-20T10:29:48Z
2022-10-20T08:30:56Z,42.805,6.029,13.3009,4.60054,2470.586,2022-10-20T10:32:52Z
2022-10-20T08:33:59Z,42.805,6.029,13.3014,4.60054,2470.614,2022-10-20T10:35:55Z
2022-10-20T08:37:02Z,42.805,6.029,13.3011,4.60055,2470.624,2022-10-20T10:38:58Z
2022-10-20T08:40:05Z,42.805,6.029,13.3011,4.60064,2470.614,2022-10-20T10:42:01Z
2022-10-20T08:43:08Z,42.805,6.029,13.3012,4.60054,2470.6,2022-10-20T10:45:04Z
2022-10-20T08:46:11Z,42.805,6.029,13.3014,4.60053,2470.637,2022-10-20T10:48:07Z
2022-10-20T08:49:14Z,42.805,6.029,13.3014,4.60054,2470.624,2022-10-20T10:51:10Z
2022-10-20T08:52:17Z,42.805,6.029,13.3009,4.60055,2470.6,2022-10-20T10:54:13Z
2022-10-20T08:55:21Z,42.805,6.029,13.3014,4.60053,2470.6,2022-10-20T10:57:16Z
2022-10-20T08:58:24Z,42.805,6.029,13.3011,4.60055,2470.6,2022-10-20T11:00:19Z
2022-10-20T09:01:27Z,42.805,6.029,13.3016,4.60053,2470.637,2022-10-20T11:03:22Z
2022-10-20T09:04:30Z,42.805,6.029,13.3014,4.60063,2470.6,2022-10-20T11:06:25Z
2022-10-20T09:07:33Z,42.805,6.029,13.3014,4.60054,2470.624,2022-10-20T11:09:29Z
2022-10-20T09:10:36Z,42.805,6.029,13.3010,4.60055,2470.591,2022-10-20T11:12:32Z
2022-10-20T09:13:39Z,42.805,6.029,13.3014,4.60054,2470.6,2022-10-20T11:15:35Z
2022-10-20T09:16:42Z,42.805,6.029,13.3013,4.60057,2470.6,2022-10-20T11:18:38Z
2022-10-20T09:19:45Z,42.805,6.029,13.3011,4.60053,2470.624,2022-10-20T11:21:41Z
2022-10-20T09:22:48Z,42.805,6.029,13.3011,4.60054,2470.614,2022-10-20T11:24:44Z
2022-10-20T09:25:51Z,42.805,6.029,13.3010,4.60054,2470.614,2022-10-20T11:27:47Z
2022-10-20T09:28:55Z,42.805,6.029,13.3013,4.60054,2470.6,2022-10-20T11:30:50Z
2022-10-20T09:31:58Z,42.805,6.029,13.3011,4.60054,2470.6,2022-10-20T11:33:53Z
2022-10-20T09:35:01Z,42.805,6.029,13.3009,4.60053,2470.624,2022-10-20T11:36:56Z
2022-10-20T09:38:04Z,42.805,6.029,13.3014,4.60059,2470.591,2022-10-20T11:39:59Z
2022-10-20T09:41:07Z,42.805,6.029,13.3011,4.60054,2470.646,2022-10-20T11:43:02Z
2022-10-20T09:44:10Z,42.805,6.029,13.3016,4.60053,2470.577,2022-10-20T11:46:06Z
2022-10-20T09:47:13Z,42.805,6.029,13.3014,4.60053,2470.6,2022-10-20T11:49:09Z
2022-10-20T09:50:16Z,42.805,6.029,13.3009,4.60053,2470.646,2022-10-20T11:52:12Z
2022-10-20T09:53:19Z,42.805,6.029,13.3011,4.60053,2470.591,2022-10-20T11:55:15Z
2022-10-20T09:56:22Z,42.805,6.029,13.3013,4.60054,2470.6,2022-10-20T11:58:18Z
2022-10-20T09:59:25Z,42.805,6.029,13.3010,4.60054,2470.624,2022-10-20T12:01:21Z
2022-10-20T10:02:28Z,42.805,6.029,13.3014,4.60053,2470.6,2022-10-20T12:04:24Z
2022-10-20T10:05:31Z,42.805,6.029,13.3011,4.60054,2470.614,2022-10-20T12:07:27Z
2022-10-20T10:08:35Z,42.805,6.029,13.3010,4.60052,2470.637,2022-10-20T12:10:30Z
2022-10-20T10:11:38Z,42.805,6.029,13.3013,4.60054,2470.591,2022-10-20T12:13:33Z
2022-10-20T10:14:41Z,42.805,6.029,13.3013,4.60053,2470.6,2022-10-20T12:16:36Z
2022-10-20T10:17:44Z,42.805,6.029,13.3014,4.60053,2470.614,2022-10-20T12:19:39Z
2022-10-20T10:20:47Z,42.805,6.029,13.3011,4.60055,2470.6,2022-10-20T12:22:43Z
2022-10-20T10:23:50Z,42.805,6.029,13.3011,4.60055,2470.6,2022-10-20T12:25:46Z
2022-10-20T10:26:53Z,42.805,6.029,13.3013,4.60055,2470.614,2022-10-20T12:28:49Z
2022-10-20T10:29:56Z,42.805,6.029,13.3010,4.60054,2470.586,2022-10-20T12:31:52Z
2022-10-20T10:32:59Z,42.805,6.029,13.3014,4.60055,2470.6,2022-10-20T12:34:55Z
2022-10-20T10:36:02Z,42.805,6.029,13.3014,4.60053,2470.6,2022-10-20T12:37:58Z
2022-10-20T10:39:05Z,42.805,6.029,13.3009,4.60053,2470.577,2022-10-20T12:41:01Z
2022-10-20T10:42:08Z,42.805,6.029,13.3013,4.60054,2470.61,2022-10-20T12:44:04Z
2022-10-20T10:45:12Z,42.805,6.029,13.3014,4.60054,2470.614,2022-10-20T12:47:07Z
2022-10-20T10:48:15Z,42.805,6.029,13.3012,4.60059,2470.637,2022-10-20T12:50:10Z
2022-10-20T10:51:18Z,42.805,6.029,13.3012,4.60053,2470.646,2022-10-20T12:53:13Z
2022-10-20T10:54:21Z,42.805,6.029,13.3014,4.60054,2470.637,2022-10-20T12:56:16Z
2022-10-20T10:57:24Z,42.805,6.029,13.3012,4.60056,2470.624,2022-10-20T12:59:20Z
2022-10-20T11:00:27Z,42.805,6.029,13.3011,4.60053,2470.637,2022-10-20T13:02:23Z
2022-10-20T11:03:30Z,42.805,6.029,13.3012,4.60059,2470.624,2022-10-20T13:05:26Z
2022-10-20T11:06:33Z,42.805,6.029,13.3014,4.60054,2470.624,2022-10-20T13:08:29Z
2022-10-20T11:09:36Z,42.805,6.029,13.3011,4.60052,2470.6,2022-10-20T13:11:32Z
2022-10-20T11:12:39Z,42.805,6.029,13.3011,4.60052,2470.661,2022-10-20T13:14:35Z
2022-10-20T11:15:42Z,42.805,6.029,13.3011,4.60053,2470.614,2022-10-20T13:17:38Z
2022-10-20T11:18:45Z,42.805,6.029,13.3009,4.60053,2470.6,2022-10-20T13:20:41Z
2022-10-20T11:21:49Z,42.805,6.029,13.3011,4.60054,2470.624,2022-10-20T13:23:44Z
2022-10-20T11:24:52Z,42.805,6.029,13.3011,4.60054,2470.661,2022-10-20T13:26:47Z
2022-10-20T11:27:55Z,42.805,6.029,13.3010,4.60053,2470.624,2022-10-20T13:29:50Z
2022-10-20T11:30:58Z,42.805,6.029,13.3011,4.60054,2470.624,2022-10-20T13:32:53Z
2022-10-20T11:34:01Z,42.805,6.029,13.3013,4.60052,2470.6,2022-10-20T13:35:57Z
2022-10-20T11:37:04Z,42.805,6.029,13.3014,4.60055,2470.624,2022-10-20T13:39:00Z
2022-10-20T11:40:07Z,42.805,6.029,13.3012,4.60054,2470.624,2022-10-20T13:42:03Z
2022-10-20T11:43:10Z,42.805,6.029,13.3011,4.60054,2470.614,2022-10-20T13:45:06Z
2022-10-20T11:46:13Z,42.805,6.029,13.3011,4.60053,2470.6,2022-10-20T13:48:09Z
2022-10-20T11:49:16Z,42.805,6.029,13.3014,4.60053,2470.614,2022-10-20T13:51:12Z
2022-10-20T11:52:19Z,42.805,6.029,13.3012,4.60054,2470.624,2022-10-20T13:54:15Z
2022-10-20T11:55:22Z,42.805,6.029,13.3010,4.60052,2470.624,2022-10-20T13:57:18Z
2022-10-20T11:58:26Z,42.805,6.029,13.3014,4.60054,2470.646,2022-10-20T14:00:21Z
2022-10-20T12:01:29Z,42.805,6.029,13.3012,4.60053,2470.646,2022-10-20T14:03:24Z
2022-10-20T12:04:32Z,42.805,6.029,13.3011,4.60054,2470.624,2022-10-20T14:06:27Z
2022-10-20T12:07:35Z,42.805,6.029,13.3012,4.60054,2470.624,2022-10-20T14:09:30Z
2022-10-20T12:10:38Z,42.805,6.029,13.3010,4.60054,2470.661,2022-10-20T14:12:34Z
2022-10-20T12:13:41Z,42.805,6.029,13.3011,4.60055,2470.637,2022-10-20T14:15:37Z
2022-10-20T12:16:44Z,42.805,6.029,13.3007,4.60052,2470.646,2022-10-20T14:18:40Z
2022-10-20T12:19:47Z,42.805,6.029,13.3011,4.60054,2470.624,2022-10-20T14:21:43Z
2022-10-20T12:22:50Z,42.805,6.029,13.3014,4.60054,2470.661,2022-10-20T14:24:46Z
2022-10-20T12:25:53Z,42.805,6.029,13.3011,4.60057,2470.661,2022-10-20T14:27:49Z
2022-10-20T12:28:56Z,42.805,6.029,13.3012,4.60053,2470.637,2022-10-20T14:30:52Z
2022-10-20T12:31:59Z,42.805,6.029,13.3009,4.60054,2470.646,2022-10-20T14:33:55Z
2022-10-20T12:35:03Z,42.805,6.029,13.3013,4.60054,2470.646,2022-10-20T14:36:58Z
2022-10-20T12:38:06Z,42.805,6.029,13.3012,4.60053,2470.624,2022-10-20T14:40:01Z
2022-10-20T12:41:09Z,42.805,6.029,13.3014,4.60056,2470.624,2022-10-20T14:43:04Z
2022-10-20T12:44:12Z,42.805,6.029,13.3012,4.60059,2470.646,2022-10-20T14:46:07Z
2022-10-20T12:47:15Z,42.805,6.029,13.3014,4.60055,2470.67,2022-10-20T14:49:11Z
2022-10-20T12:50:18Z,42.805,6.029,13.3010,4.60054,2470.624,2022-10-20T14:52:14Z
2022-10-20T12:53:21Z,42.805,6.029,13.3011,4.60054,2470.693,2022-10-20T14:55:17Z
2022-10-20T12:56:24Z,42.805,6.029,13.3011,4.60054,2470.684,2022-10-20T14:58:20Z
2022-10-20T12:59:27Z,42.805,6.029,13.3015,4.60054,2470.646,2022-10-20T15:01:23Z
2022-10-20T13:02:30Z,42.805,6.029,13.3014,4.60053,2470.693,2022-10-20T15:04:26Z
2022-10-20T13:05:33Z,42.805,6.029,13.3011,4.60058,2470.67,2022-10-20T15:07:29Z
2022-10-20T13:08:36Z,42.805,6.029,13.3011,4.60054,2470.684,2022-10-20T15:10:32Z
2022-10-20T13:11:40Z,42.805,6.029,13.3012,4.60054,2470.624,2022-10-20T15:13:35Z
2022-10-20T13:14:43Z,42.805,6.029,13.3015,4.60054,2470.646,2022-10-20T15:16:38Z
2022-10-20T13:17:46Z,42.805,6.029,13.3010,4.60054,2470.661,2022-10-20T15:19:41Z
2022-10-20T13:20:49Z,42.805,6.029,13.3011,4.60054,2470.67,2022-10-20T15:22:44Z
2022-10-20T13:23:52Z,42.805,6.029,13.3007,4.60055,2470.67,2022-10-20T15:25:48Z
2022-10-20T13:26:55Z,42.805,6.029,13.3012,4.60054,2470.684,2022-10-20T15:28:51Z
2022-10-20T13:29:58Z,42.805,6.029,13.3009,4.60054,2470.67,2022-10-20T15:31:54Z
2022-10-20T13:33:01Z,42.805,6.029,13.3010,4.60057,2470.67,2022-10-20T15:34:57Z
2022-10-20T13:36:04Z,42.805,6.029,13.3009,4.60054,2470.693,2022-10-20T15:38:00Z
2022-10-20T13:39:07Z,42.805,6.029,13.3014,4.60054,2470.693,2022-10-20T15:41:03Z
2022-10-20T13:42:10Z,42.805,6.029,13.3014,4.60055,2470.684,2022-10-20T15:44:06Z
2022-10-20T13:45:13Z,42.805,6.029,13.3011,4.60053,2470.707,2022-10-20T15:47:09Z
2022-10-20T13:48:17Z,42.805,6.029,13.3009,4.60054,2470.717,2022-10-20T15:50:12Z
2022-10-20T13:51:20Z,42.805,6.029,13.3011,4.60055,2470.67,2022-10-20T15:53:15Z
2022-10-20T13:54:23Z,42.805,6.029,13.3011,4.60054,2470.656,2022-10-20T15:56:18Z
2022-10-20T13:57:26Z,42.805,6.029,13.3010,4.60054,2470.717,2022-10-20T15:59:22Z
2022-10-20T14:00:29Z,42.805,6.029,13.3012,4.60053,2470.693,2022-10-20T16:02:25Z
2022-10-20T14:03:32Z,42.805,6.029,13.3011,4.60054,2470.693,2022-10-20T16:05:28Z
2022-10-20T14:06:35Z,42.805,6.029,13.3011,4.60055,2470.693,2022-10-20T16:08:31Z
2022-10-20T14:09:38Z,42.805,6.029,13.3010,4.60055,2470.693,2022-10-20T16:11:34Z
2022-10-20T14:12:41Z,42.805,6.029,13.3012,4.60054,2470.717,2022-10-20T16:14:37Z
2022-10-20T14:15:44Z,42.805,6.029,13.3007,4.60055,2470.693,2022-10-20T16:17:40Z
2022-10-20T14:18:47Z,42.805,6.029,13.3010,4.60057,2470.73,2022-10-20T16:20:43Z
2022-10-20T14:21:50Z,42.805,6.029,13.3012,4.60054,2470.74,2022-10-20T16:23:46Z
2022-10-20T14:24:54Z,42.805,6.029,13.3013,4.60054,2470.693,2022-10-20T16:26:49Z
2022-10-20T14:27:57Z,42.805,6.029,13.3009,4.60054,2470.693,2022-10-20T16:29:52Z
2022-10-20T14:31:00Z,42.805,6.029,13.3011,4.60054,2470.693,2022-10-20T16:32:55Z
2022-10-20T14:34:03Z,42.805,6.029,13.3012,4.60055,2470.73,2022-10-20T16:35:58Z
2022-10-20T14:37:06Z,42.805,6.029,13.3009,4.60054,2470.717,2022-10-20T16:39:02Z
2022-10-20T14:40:09Z,42.805,6.029,13.3015,4.60056,2470.74,2022-10-20T16:42:05Z
2022-10-20T14:43:12Z,42.805,6.029,13.3011,4.60054,2470.717,2022-10-20T16:45:08Z
2022-10-20T14:46:15Z,42.805,6.029,13.3010,4.60056,2470.707,2022-10-20T16:48:11Z
2022-10-20T14:49:18Z,42.805,6.029,13.3011,4.60056,2470.74,2022-10-20T16:51:14Z
2022-10-20T14:52:21Z,42.805,6.029,13.3009,4.60057,2470.717,2022-10-20T16:54:17Z
2022-10-20T14:55:24Z,42.805,6.029,13.3013,4.60058,2470.717,2022-10-20T16:57:20Z
2022-10-20T14:58:27Z,42.805,6.029,13.3013,4.60054,2470.74,2022-10-20T17:00:23Z
2022-10-20T15:01:31Z,42.805,6.029,13.3015,4.60054,2470.717,2022-10-20T17:03:26Z